This demonstration page uses our WeatherBlox Daily Observations layout. Learn more.

Left ArrowRight Arrow

Hourly Observations for August 3, 2021

Temp ( °F °C ) Dew Point ( °F °C ) Humidity (%) Winds ( mph kmh ) Pressure ( in mb ) Visibility ( mi km ) Precip ( " mm )
12:53 am 00:53 Clear with Smoke 70 21.1 41 5 35 35 Calm 29.95 1014 10 16 0.00 0.00
1:53 am 01:53 Clear with Smoke 68 20 43 6.1 40 40 Calm 29.94 1014 10 16 0.00 0.00
2:53 am 02:53 Clear with Smoke 66 18.9 42 5.6 42 42 Calm 29.94 1014 10 16 0.00 0.00
3:53 am 03:53 Clear with Smoke 65 18.3 42 5.6 43 43 Calm 29.94 1014 10 16 0.00 0.00
4:53 am 04:53 Clear with Smoke 63 17.2 44 6.7 50 50 Calm 29.95 1014 10 16 0.00 0.00
5:53 am 05:53 Clear with Smoke 62 16.7 42 5.6 48 48 ESE 3 6 29.97 1015 10 16 0.00 0.00
6:53 am 06:53 Sunny with Smoke 65 18.3 42 5.6 43 43 Calm 29.98 1015 10 16 0.00 0.00
7:53 am 07:53 Sunny with Smoke 70 21.1 44 6.7 39 39 Calm 29.99 1016 10 16 0.00 0.00
8:53 am 08:53 Sunny with Smoke 78 25.6 42 5.6 28 28 Calm 29.99 1016 10 16 0.00 0.00
9:53 am 09:53 Sunny with Smoke 82 27.8 41 5 23 23 SSW 5 7 29.98 1015 10 16 0.00 0.00
10:53 am 10:53 Sunny with Smoke 87 30.6 43 6.1 21 21 SSW 3 6 29.97 1015 10 16 0.00 0.00
11:53 am 11:53 Sunny with Smoke 90 32.2 36 2.2 15 15 Calm 29.95 1014 10 16 0.00 0.00
12:53 pm 12:53 Sunny with Smoke 95 35 31 -0.6 10 10 W 5 7 29.93 1014 10 16 0.00 0.00
1:53 pm 13:53 Sunny with Smoke 99 37.2 32 0 9 9 VRB 5 7 29.91 1013 10 16 0.00 0.00
2:53 pm 14:53 Sunny with Smoke 102 38.9 32 0 9 9 VRB 6 9 29.89 1012 10 16 0.00 0.00
3:53 pm 15:53 Sunny with Smoke 103 39.4 29 -1.7 7 7 VRB 7 11 29.87 1011 10 16 0.00 0.00
4:53 pm 16:53 Sunny with Smoke 104 40 29 -1.7 7 7 SSE 10 17 29.85 1011 10 16 0.00 0.00
5:53 pm 17:53 Sunny with Smoke 103 39.4 28 -2.2 7 7 S 8 13 29.83 1010 10 16 0.00 0.00
6:53 pm 18:53 Sunny with Smoke 102 38.9 30 -1.1 8 8 SSE 8 13 29.81 1010 10 16 0.00 0.00
7:53 pm 19:53 Sunny with Smoke 96 35.6 35 1.7 12 12 SSE 7 11 29.82 1010 10 16 0.00 0.00
8:53 pm 20:53 Clear with Smoke 90 32.2 36 2.2 15 15 Calm 29.82 1010 10 16 0.00 0.00
9:53 pm 21:53 Clear with Smoke 85 29.4 37 2.8 18 18 Calm 29.84 1010 10 16 0.00 0.00
10:53 pm 22:53 Clear with Smoke 79 26.1 39 3.9 24 24 Calm 29.85 1011 10 16 0.00 0.00
11:53 pm 23:53 Clear with Smoke 77 25 40 4.4 26 26 Calm 29.85 1011 10 16 0.00 0.00

Powered by AerisWeather